Location: Elk Forest
(39.5314°N, 75.8738°W)
Time: 04:15:38
(UTC-05:00)

Daily predictions for brighter satellites

Satellite Brightness Start Highest point End
(mag) Time Altitude Azimuth Time Altitude Azimuth Time Altitude Azimuth
USA 234 4.1 04:11:05 10° E 04:17:03 39° NNE 04:17:50 38° NNE
SeaSat 1 4.2 04:14:17 10° NE 04:16:40 27° NE 04:16:40 27° NE
Cosmos 2279 Rocket 4.1 04:27:09 68° SE 04:27:09 68° SE 04:32:37 10° S
CZ-4C R/B 2.8 04:28:02 48° SE 04:28:18 49° ESE 04:33:48 10° NE
Cosmos 1980 Rocket 2.6 04:29:11 62° ESE 04:29:11 62° ESE 04:34:09 10° SSE
Meteor 2-20 4.4 04:39:17 10° S 04:45:22 78° E 04:51:27 10° N
Cosmos 2180 Rocket 4.4 04:46:30 49° N 04:48:23 87° W 04:54:38 10° S
IDEFIX/ARIANE 42P 3.8 04:52:02 10° NNE 04:56:58 41° E 05:01:53 10° SSE
Meteor 2-4 Rocket 3.5 04:57:00 51° N 04:58:28 89° ENE 05:04:03 10° S
Meteor 1-13 Rocket 4.3 05:05:25 58° WNW 05:06:06 62° W 05:11:56 10° S
SL-16 R/B 3.0 05:04:54 19° N 05:08:47 49° ENE 05:14:15 10° SE
Meteor 1-11 Rocket 3.7 05:05:08 10° SSW 05:10:59 61° WNW 05:16:47 10° N
SKYMED 2 3.7 05:08:51 10° SSE 05:13:09 71° ENE 05:15:07 32° N
Cosmos 2322 Rocket 2.9 05:10:14 18° N 05:14:20 52° ENE 05:19:51 10° SE
Cosmos 2360 4.3 05:14:26 52° W 05:15:03 54° WSW 05:20:35 10° S
Nadezhda 4 Rocket 3.8 05:10:37 10° S 05:16:45 77° W 05:22:54 10° N
Feng Yun 1-1 Rocket 4.3 05:11:40 10° NNE 05:17:31 87° ESE 05:23:10 10° SSW
Cosmos 1538 Rocket 3.8 05:13:02 10° SSW 05:18:14 72° WNW 05:23:32 10° NNE
USA 267 3.9 05:19:46 10° NE 05:25:34 35° NNW 05:27:03 32° NW
EO 1 Del DPAF 3.1 05:23:47 10° SSE 05:27:36 88° E 05:29:01 38° NNW
Cosmos 1697 Rocket 4.4 05:33:30 16° SW 05:33:30 16° SW 05:35:08 10° SW
Meteor 1-4 Rocket 2.6 05:28:48 10° S 05:32:35 85° E 05:36:24 10° N
Meteor 1-5 Rocket 4.1 05:28:49 10° SSW 05:34:10 56° WNW 05:39:26 10° N
Cosmos 2082 Rocket 4.2 05:38:46 12° NNW 05:38:46 12° NNW 05:39:23 10° NNW
APEX 3.9 05:37:04 10° S 05:40:11 50° ESE 05:44:04 10° NNE
Cosmos 1300 Rocket 3.9 05:37:47 10° SSW 05:41:49 39° WNW 05:45:54 10° N
Okean 1-7 Rocket 4.0 05:38:21 10° N 05:42:52 65° E 05:47:23 10° SSE
deb Kosmos-1763 4.1 05:40:56 10° SSW 05:44:36 55° WNW 05:48:16 10° N
Cosmos 1500 3.0 05:42:56 10° SSW 05:46:47 76° W 05:50:38 10° N
Timation 2 Rocket 4.5 05:41:50 10° SW 05:48:17 42° WNW 05:54:47 10° NNE
RESURS DK-1 4.0 05:49:57 18° WSW 05:49:57 18° WSW 05:51:56 10° SSW
Cosmos 1025 Rocket 2.9 05:44:58 10° N 05:49:16 78° W 05:53:32 10° S
PAYLOAD A 4.1 05:47:06 10° N 05:52:26 57° WNW 05:57:37 10° SSW
SeaSat 1 3.6 05:52:31 10° N 05:56:17 22° NW 05:56:29 22° NW
Cosmos 1092 Rocket 4.1 05:52:01 10° SSW 05:57:57 52° W 06:03:57 10° N
USA 234 3.3 05:53:15 10° SE 05:59:46 69° SW 06:05:11 16° NW
Cosmos 1184 Rocket 2.7 05:57:41 11° N 06:00:49 85° W 06:04:09 10° S
COSMO-SKYMED 1 3.3 05:57:24 10° SSW 06:01:17 32° W 06:03:42 19° NW
CZ-4 R/B 3.4 06:00:13 10° NNE 06:04:02 33° E 06:07:51 10° SSE
Okean-O 3.5 06:06:34 10° NNW 06:10:17 27° WNW 06:13:59 10° SW
CZ-2C R/B 2.4 06:05:40 10° N 06:10:20 50° WNW 06:14:51 10° SSW
Cosmos 2360 Rocket 2.6 06:05:05 10° NNW 06:10:44 63° ENE 06:16:20 10° SE
Cosmos 1066 Rocket 4.1 06:05:56 10° N 06:11:19 85° W 06:16:46 10° S
Cosmos 2026 Rocket 4.0 06:05:38 10° SSW 06:11:50 67° W 06:18:11 10° N
Cosmos 1980 Rocket 3.7 06:11:01 15° W 06:11:52 16° W 06:15:07 10° SW
GEOS 3 Rocket 3.8 06:06:31 10° NE 06:11:57 81° SE 06:17:18 10° SSW
Cosmos 1655 Rocket 4.1 06:05:51 10° S 06:12:05 87° E 06:18:24 10° N
Ariane Rocket 3.7 06:09:53 10° NNE 06:14:53 57° ESE 06:19:52 10° S
CZ-4C R/B 3.1 06:13:20 13° W 06:17:06 27° NW 06:22:11 10° NNE
Okean 1 Rocket 4.0 06:14:04 10° SW 06:17:44 26° WNW 06:21:28 10° NNW
Cosmos 1666 2.9 06:15:14 10° S 06:19:03 73° E 06:22:51 10° NNE
Cosmos 2219 Rocket 4.3 06:15:30 10° N 06:19:53 22° NE 06:24:15 10° ESE
Cosmos 1553 Rocket 4.1 06:15:30 10° N 06:21:46 84° E 06:27:54 10° S
SJ-12 4.1 06:19:10 10° N 06:23:04 46° WNW 06:26:56 10° SSW
Cosmos 389 Rocket 2.5 06:19:56 10° S 06:23:34 84° WNW 06:27:11 10° N
Okean 2 4.3 06:20:15 10° NNW 06:23:46 28° W 06:27:18 10° SSW
Cosmos 1975 3.0 06:22:08 10° SSW 06:25:58 46° W 06:29:49 10° N
BREEZE-M DEB (TANK) 3.4 06:23:00 11° WNW 06:28:52 33° N 06:31:14 10° ENE
SJ-7 4.4 06:27:18 10° N 06:31:21 67° WNW 06:35:25 10° SSW
IDEFIX/ARIANE 42P 3.6 06:32:13 10° NNW 06:36:18 24° WNW 06:40:23 10° WSW
Cosmos 1680 Rocket 3.9 06:32:34 10° SW 06:37:26 40° WNW 06:42:22 10° N
Cosmos 1892 Rocket 3.6 06:34:36 10° NNW 06:38:55 56° W 06:43:09 10° S
YAOGAN 1 3.4 06:34:46 10° NNE 06:39:02 56° E 06:43:17 10° S
AQUARIUS 4.1 06:35:10 10° N 06:39:40 73° WNW 06:44:08 10° SSW
CSL-04 Debris 4.2 06:38:58 10° N 06:44:24 75° WNW 06:49:51 10° SSW
ERS-2 4.5 06:41:37 10° NE 06:44:52 29° E 06:48:07 10° SSE
ATLAS 5 CENTAUR R/B 4.1 06:40:17 10° NNW 06:45:14 26° NE 06:50:32 10° E
Cosmos 2219 4.3 06:40:01 10° S 06:45:28 51° ESE 06:50:54 10° NNE
ATLAS CENTAUR R/B 1.1 06:43:08 10° SSW 06:46:51 89° WNW 06:50:33 10° NNE
MSX 4.4 06:42:38 10° N 06:47:43 33° WNW 06:52:47 10° SW
Meteor 1-12 Rocket 4.5 06:44:24 10° SSW 06:49:53 47° WNW 06:55:21 10° N
